Fort Meade, MD

9:16 PM EST on November 19, 2017 (GMT -0500)
Tipton

Weather History for KFME - May, 2014

Change the Weather History Date:

Monday, May 5, 2014

  Actual Average (KBWI) Record (KBWI)
Temperature  
Mean Temperature 52 °F -  
Max Temperature 64 °F 71 °F 92 °F (1930)
Min Temperature 41 °F 47 °F 34 °F (1966)
Degree Days  
Heating Degree Days 12    
Growing Degree Days 2 (Base 50)    
Moisture  
Dew Point 35 °F    
Average Humidity 52    
Maximum Humidity 82    
Minimum Humidity 30    
Precipitation  
Precipitation 0.00 in - - ()
Sea Level Pressure  
Sea Level Pressure 30.00 in    
Wind  
Wind Speed 6 mph (WNW)    
Max Wind Speed 13 mph    
Max Gust Speed 18 mph    
Visibility 10 miles    
Events      
Averages and records for this station are not official NWS values.
T = Trace of Precipitation, MM = Missing Value Source: NWS Daily Summary

Daily Weather History Graph

Daily Weather History Graph

Search for Another Location

Airport or City:

Trip Planner

Search our weather history database for the weather conditions in past years. The results will help you decide how hot, cold, wet, or windy it might be!

Date:

Astronomy

May. 05, 2014 Rise Set
Actual Time 6:04 AM EDT 8:03 PM EDT
Civil Twilight 5:35 AM EDT 8:33 PM EDT
Nautical Twilight 4:59 AM EDT 9:08 PM EDT
Astronomical Twilight 4:21 AM EDT 9:47 PM EDT
Moon 11:21 AM EDT (5/5) 12:46 AM EDT (5/5)
Length of Visible Light 14h 58m
Length of Day
13h 59m
Waxing Crescent, 36% of the Moon is Illuminated
May 5
Waxing Crescent
May 6
First Quarter
May 14
Full
May 21
Last Quarter
May 28
New

Hourly Weather History & Observations

Time (EDT) Temp. Windchill Dew Point Humidity Pressure Visibility Wind Dir Wind Speed Gust Speed Precip Events Conditions
12:03 AM 51.8 °F - 35.6 °F 54% 29.97 in 10.0 mi NW 3.5 mph - N/A   Clear
12:24 AM 50.0 °F - 35.6 °F 58% 29.97 in 10.0 mi WNW 4.6 mph - N/A   Scattered Clouds
12:45 AM 51.8 °F - 33.8 °F 50% 29.98 in 10.0 mi NW 5.8 mph - N/A   Clear
1:03 AM 50.0 °F - 32.0 °F 50% 29.98 in 10.0 mi NW 4.6 mph - N/A   Scattered Clouds
1:24 AM 50.0 °F - 32.0 °F 50% 29.99 in 10.0 mi WNW 3.5 mph - N/A   Scattered Clouds
1:45 AM 46.4 °F 44.3 °F 33.8 °F 62% 29.99 in 10.0 mi WNW 4.6 mph - N/A   Scattered Clouds
2:03 AM 46.4 °F 42.9 °F 32.0 °F 57% 29.99 in 10.0 mi WNW 6.9 mph - N/A   Clear
2:24 AM 46.4 °F 45.2 °F 32.0 °F 57% 29.99 in 10.0 mi WNW 3.5 mph - N/A   Clear
2:45 AM 44.6 °F 43.1 °F 32.0 °F 61% 29.99 in 10.0 mi WNW 3.5 mph - N/A   Clear
3:06 AM 44.6 °F 43.1 °F 33.8 °F 66% 30.00 in 10.0 mi West 3.5 mph - N/A   Clear
3:24 AM 42.8 °F 39.3 °F 37.4 °F 81% 30.00 in 10.0 mi West 5.8 mph - N/A   Clear
3:45 AM 44.6 °F 42.2 °F 33.8 °F 66% 30.00 in 10.0 mi WNW 4.6 mph - N/A   Clear
4:06 AM 44.6 °F 41.4 °F 32.0 °F 61% 30.00 in 10.0 mi NW 5.8 mph - N/A   Clear
4:24 AM 44.6 °F 42.2 °F 32.0 °F 61% 30.00 in 10.0 mi WNW 4.6 mph - N/A   Clear
4:45 AM 42.8 °F 41.1 °F 33.8 °F 70% 30.00 in 10.0 mi WNW 3.5 mph - N/A   Clear
5:06 AM 42.8 °F 40.1 °F 33.8 °F 70% 30.01 in 10.0 mi WNW 4.6 mph - N/A   Clear
5:24 AM 42.8 °F 40.1 °F 33.8 °F 70% 30.01 in 10.0 mi NW 4.6 mph - N/A   Clear
5:45 AM 41.0 °F 39.0 °F 33.8 °F 76% 30.01 in 10.0 mi WNW 3.5 mph - N/A   Clear
6:06 AM 41.0 °F 39.0 °F 33.8 °F 76% 30.02 in 10.0 mi SW 3.5 mph - N/A   Clear
6:24 AM 41.0 °F 39.0 °F 35.6 °F 81% 30.03 in 10.0 mi SSW 3.5 mph - N/A   Clear
6:45 AM 41.0 °F 39.0 °F 35.6 °F 81% 30.04 in 10.0 mi WSW 3.5 mph - N/A   Clear
7:06 AM 41.0 °F 39.0 °F 35.6 °F 81% 30.05 in 10.0 mi WSW 3.5 mph - N/A   Clear
7:24 AM 42.8 °F 39.3 °F 37.4 °F 81% 30.06 in 10.0 mi West 5.8 mph - N/A   Clear
7:45 AM 48.2 °F - 35.6 °F 62% 30.06 in 10.0 mi West 9.2 mph - N/A   Clear
8:06 AM 50.0 °F - 35.6 °F 58% 30.07 in 10.0 mi WNW 8.1 mph - N/A   Clear
8:24 AM 51.8 °F - 35.6 °F 54% 30.07 in 10.0 mi NW 8.1 mph - N/A   Clear
8:45 AM 53.6 °F - 35.6 °F 51% 30.07 in 10.0 mi NW 5.8 mph - N/A   Clear
9:06 AM 53.6 °F - 33.8 °F 47% 30.07 in 10.0 mi NW 8.1 mph - N/A   Clear
9:24 AM 55.4 °F - 33.8 °F 44% 30.08 in 10.0 mi NW 9.2 mph - N/A   Clear
9:45 AM 55.4 °F - 35.6 °F 47% 30.06 in 10.0 mi NW 6.9 mph - N/A   Clear
10:06 AM 59.0 °F - 35.6 °F 42% 30.06 in 10.0 mi North 8.1 mph - N/A   Clear
10:24 AM 57.2 °F - 32.0 °F 38% 30.06 in 10.0 mi NNW 11.5 mph 16.1 mph N/A   Clear
10:45 AM 59.0 °F - 33.8 °F 39% 30.06 in 10.0 mi NW 6.9 mph - N/A   Clear
11:06 AM 60.8 °F - 33.8 °F 36% 30.05 in 10.0 mi NW 12.7 mph 16.1 mph N/A   Clear
11:45 AM 60.8 °F - 33.8 °F 36% 30.03 in 10.0 mi NW 5.8 mph - N/A   Clear
12:06 PM 60.8 °F - 32.0 °F 34% 30.03 in 10.0 mi WNW 10.4 mph 16.1 mph N/A   Clear
12:27 PM 62.6 °F - 33.8 °F 34% 30.02 in 10.0 mi WNW 8.1 mph - N/A   Clear
12:45 PM 60.8 °F - 32.0 °F 34% 30.01 in 10.0 mi NNW 8.1 mph - N/A   Clear
1:06 PM 62.6 °F - 32.0 °F 32% 30.00 in 10.0 mi NNW 5.8 mph - N/A   Clear
1:27 PM 64.4 °F - 32.0 °F 30% 30.00 in 10.0 mi North 10.4 mph - N/A   Clear
1:45 PM 62.6 °F - 32.0 °F 32% 29.99 in 10.0 mi WNW 9.2 mph - N/A   Clear
2:06 PM 62.6 °F - 32.0 °F 32% 29.99 in 10.0 mi NW 9.2 mph - N/A   Clear
2:27 PM 64.4 °F - 32.0 °F 30% 29.99 in 10.0 mi NW 6.9 mph 16.1 mph N/A   Clear
2:45 PM 64.4 °F - 32.0 °F 30% 29.98 in 10.0 mi NNW 8.1 mph - N/A   Clear
3:06 PM 64.4 °F - 33.8 °F 32% 29.98 in 10.0 mi WNW 4.6 mph 17.3 mph N/A   Clear
3:27 PM 62.6 °F - 33.8 °F 34% 29.98 in 10.0 mi NNW 4.6 mph - N/A   Clear
3:45 PM 62.6 °F - 32.0 °F 32% 29.97 in 10.0 mi WNW 10.4 mph - N/A   Clear
4:06 PM 62.6 °F - 32.0 °F 32% 29.96 in 10.0 mi WNW 9.2 mph - N/A   Clear
4:27 PM 64.4 °F - 32.0 °F 30% 29.95 in 10.0 mi WNW 9.2 mph - N/A   Clear
4:45 PM 64.4 °F - 32.0 °F 30% 29.95 in 10.0 mi West 6.9 mph - N/A   Scattered Clouds
5:06 PM 62.6 °F - 32.0 °F 32% 29.95 in 10.0 mi West 9.2 mph - N/A   Scattered Clouds
5:27 PM 62.6 °F - 33.8 °F 34% 29.94 in 10.0 mi West 6.9 mph - N/A   Mostly Cloudy
5:45 PM 62.6 °F - 33.8 °F 34% 29.93 in 10.0 mi WNW 6.9 mph - N/A   Scattered Clouds
6:06 PM 62.6 °F - 33.8 °F 34% 29.92 in 10.0 mi WNW 4.6 mph - N/A   Mostly Cloudy
6:27 PM 60.8 °F - 37.4 °F 42% 29.93 in 10.0 mi WNW 4.6 mph - N/A   Mostly Cloudy
6:45 PM 60.8 °F - 35.6 °F 39% 29.94 in 10.0 mi WNW 5.8 mph - N/A   Overcast
7:06 PM 60.8 °F - 39.2 °F 45% 29.95 in 10.0 mi West 6.9 mph - N/A   Overcast
7:27 PM 59.0 °F - 35.6 °F 42% 29.94 in 10.0 mi West 4.6 mph - N/A   Mostly Cloudy
7:45 PM 59.0 °F - 37.4 °F 45% 29.94 in 10.0 mi West 3.5 mph - N/A   Scattered Clouds
8:27 PM 53.6 °F - 41.0 °F 62% 29.95 in 10.0 mi WSW 9.2 mph - N/A   Scattered Clouds
8:48 PM 55.4 °F - 37.4 °F 51% 29.95 in 10.0 mi WSW 8.1 mph - N/A   Clear
9:06 PM 55.4 °F - 37.4 °F 51% 29.96 in 10.0 mi WSW 10.4 mph - N/A   Clear
9:27 PM 53.6 °F - 41.0 °F 62% 29.96 in 10.0 mi SW 8.1 mph 18.4 mph N/A   Clear
9:48 PM 51.8 °F - 41.0 °F 67% 29.96 in 10.0 mi WSW 6.9 mph - N/A   Scattered Clouds
10:27 PM 51.8 °F - 42.8 °F 71% 29.96 in 10.0 mi WSW 3.5 mph - N/A   Scattered Clouds
11:06 PM 50.0 °F - 44.6 °F 82% 29.96 in 10.0 mi West 6.9 mph - N/A   Mostly Cloudy
11:27 PM 50.0 °F - 44.6 °F 82% 29.96 in 10.0 mi WSW 5.8 mph - N/A   Overcast
11:48 PM 50.0 °F - 44.6 °F 82% 29.97 in 7.0 mi WSW 5.8 mph - N/A   Overcast